When you browse on this site, cookies collect data to enhance your experience and personalize the content and advertising you see.
Visit our Privacy Policy to learn more. By continuing to use the site, you agree to this use of cookies and data.
  • In Germany
  • List of Countries
  • For 7 days
  • Water Temperature
  • Satellite Maps
  • Weather Map
  • Weather Widgets
  • user-avatar
    Login

    Hourly Weather Kipungo

    Today, 21 May, Tuesday

    Time Temperature Precipitation Wind Pressure Humidity
    00:00 +16°C° 0 mm 1 mps 653 mmHg 36%
    01:00 +14°C° 0 mm 0 mps 653 mmHg 39%
    02:00 +14°C° 0 mm 0 mps 652 mmHg 40%
    03:00 +14°C° 0 mm 0 mps 652 mmHg 41%
    04:00 +13°C° 0 mm 0 mps 652 mmHg 42%
    05:00 +14°C° 0 mm 0 mps 652 mmHg 42%
    06:00 +14°C° 0 mm 0 mps 653 mmHg 42%
    07:00 +16°C° 0 mm 0 mps 654 mmHg 39%
    08:00 +22°C° 0 mm 1 mps 654 mmHg 34%
    09:00 +25°C° 0 mm 2 mps 655 mmHg 29%
    10:00 +28°C° 0 mm 2 mps 656 mmHg 23%
    11:00 +30°C° 0 mm 2 mps 656 mmHg 21%
    12:00 +31°C° 0 mm 3 mps 655 mmHg 19%
    13:00 +33°C° 0 mm 3 mps 655 mmHg 19%
    14:00 +31°C° 0 mm 3 mps 655 mmHg 19%
    15:00 +31°C° 0 mm 2 mps 655 mmHg 18%
    16:00 +31°C° 0 mm 2 mps 654 mmHg 18%
    17:00 +28°C° 0 mm 1 mps 654 mmHg 23%
    18:00 +25°C° 0 mm 1 mps 653 mmHg 28%
    19:00 +19°C° 0 mm 0 mps 653 mmHg 34%
    20:00 +21°C° 0 mm 1 mps 653 mmHg 36%
    21:00 +20°C° 0 mm 1 mps 653 mmHg 38%
    22:00 +19°C° 0 mm 1 mps 653 mmHg 40%
    23:00 +19°C° 0 mm 1 mps 653 mmHg 42%

    Tomorrow, 22 May, Wednesday

    Time Temperature Precipitation Wind Pressure Humidity
    00:00 +18°C° 0 mm 1 mps 653 mmHg 43%
    01:00 +15°C° 0 mm 0 mps 653 mmHg 45%
    02:00 +16°C° 0 mm 1 mps 653 mmHg 45%
    03:00 +16°C° 0 mm 1 mps 653 mmHg 46%
    04:00 +16°C° 0 mm 1 mps 652 mmHg 47%
    05:00 +16°C° 0 mm 1 mps 653 mmHg 48%
    06:00 +15°C° 0 mm 0 mps 653 mmHg 48%
    07:00 +16°C° 0 mm 0 mps 653 mmHg 49%
    08:00 +20°C° 0 mm 0 mps 654 mmHg 42%
    09:00 +26°C° 0 mm 1 mps 655 mmHg 36%
    10:00 +30°C° 0 mm 1 mps 657 mmHg 29%
    11:00 +31°C° 0 mm 2 mps 656 mmHg 26%
    12:00 +32°C° 0 mm 2 mps 656 mmHg 22%
    13:00 +34°C° 0 mm 2 mps 656 mmHg 19%
    14:00 +34°C° 0 mm 2 mps 655 mmHg 18%
    15:00 +32°C° 0 mm 2 mps 655 mmHg 18%
    16:00 +32°C° 0 mm 2 mps 654 mmHg 17%
    17:00 +29°C° 0 mm 2 mps 654 mmHg 22%
    18:00 +26°C° 0 mm 2 mps 654 mmHg 27%
    19:00 +23°C° 0 mm 2 mps 653 mmHg 32%
    20:00 +22°C° 0 mm 1 mps 654 mmHg 35%
    21:00 +20°C° 0 mm 1 mps 654 mmHg 39%
    22:00 +19°C° 0 mm 1 mps 654 mmHg 42%
    23:00 +18°C° 0 mm 1 mps 654 mmHg 45%

    Day after tomorrow, 23 May, Thursday

    Time Temperature Precipitation Wind Pressure Humidity
    00:00 +18°C° 0 mm 1 mps 654 mmHg 47%
    01:00 +16°C° 0 mm 1 mps 653 mmHg 49%
    02:00 +16°C° 0 mm 1 mps 653 mmHg 52%
    03:00 +14°C° 0 mm 0 mps 653 mmHg 54%
    04:00 +14°C° 0 mm 0 mps 652 mmHg 56%
    05:00 +14°C° 0 mm 0 mps 653 mmHg 57%
    06:00 +15°C° 0 mm 0 mps 653 mmHg 57%
    07:00 +15°C° 0 mm 0 mps 653 mmHg 57%
    08:00 +20°C° 0 mm 0 mps 655 mmHg 48%
    09:00 +24°C° 0 mm 0 mps 656 mmHg 39%
    10:00 +30°C° 0 mm 1 mps 657 mmHg 30%
    11:00 +31°C° 0 mm 1 mps 657 mmHg 28%
    12:00 +32°C° 0 mm 2 mps 656 mmHg 25%
    13:00 +32°C° 0 mm 2 mps 655 mmHg 23%
    14:00 +31°C° 0 mm 2 mps 655 mmHg 25%
    15:00 +30°C° 0 mm 2 mps 654 mmHg 28%
    16:00 +29°C° 0 mm 1 mps 653 mmHg 30%
    17:00 +27°C° 0 mm 1 mps 653 mmHg 34%
    18:00 +26°C° 0 mm 1 mps 653 mmHg 37%
    19:00 +24°C° 0 mm 1 mps 653 mmHg 41%
    20:00 +23°C° 0 mm 1 mps 654 mmHg 43%
    21:00 +22°C° 0 mm 1 mps 654 mmHg 44%
    22:00 +21°C° 0 mm 1 mps 654 mmHg 46%
    23:00 +20°C° 0 mm 1 mps 654 mmHg 48%

    24 May, Friday

    Time Temperature Precipitation Wind Pressure Humidity
    00:00 +19°C° 0 mm 1 mps 654 mmHg 51%
    01:00 +18°C° 0 mm 1 mps 653 mmHg 53%
    02:00 +18°C° 0 mm 1 mps 653 mmHg 52%
    03:00 +16°C° 0 mm 1 mps 653 mmHg 51%
    04:00 +16°C° 0 mm 1 mps 652 mmHg 50%
    05:00 +16°C° 0 mm 1 mps 653 mmHg 50%
    06:00 +15°C° 0 mm 0 mps 653 mmHg 50%
    07:00 +15°C° 0 mm 0 mps 654 mmHg 50%
    08:00 +19°C° 0 mm 0 mps 655 mmHg 40%
    09:00 +26°C° 0 mm 1 mps 656 mmHg 31%
    10:00 +30°C° 0 mm 1 mps 657 mmHg 22%
    11:00 +31°C° 0 mm 1 mps 657 mmHg 21%
    12:00 +32°C° 0 mm 2 mps 656 mmHg 20%
    13:00 +34°C° 0 mm 2 mps 656 mmHg 19%
    14:00 +32°C° 0 mm 2 mps 655 mmHg 20%
    15:00 +32°C° 0 mm 2 mps 655 mmHg 21%
    16:00 +31°C° 0 mm 1 mps 654 mmHg 22%
    17:00 +28°C° 0 mm 1 mps 654 mmHg 26%
    18:00 +26°C° 0 mm 1 mps 654 mmHg 31%
    19:00 +23°C° 0 mm 1 mps 654 mmHg 35%
    20:00 +23°C° 0 mm 1 mps 654 mmHg 38%
    21:00 +22°C° 0 mm 1 mps 655 mmHg 40%
    22:00 +21°C° 0 mm 1 mps 655 mmHg 43%
    23:00 +21°C° 0 mm 1 mps 655 mmHg 44%

    25 May, Saturday

    Time Temperature Precipitation Wind Pressure Humidity
    00:00 +20°C° 0 mm 1 mps 654 mmHg 46%
    01:00 +20°C° 0 mm 1 mps 654 mmHg 47%
    02:00 +19°C° 0 mm 1 mps 654 mmHg 49%
    03:00 +18°C° 0 mm 1 mps 654 mmHg 51%
    04:00 +18°C° 0 mm 1 mps 653 mmHg 53%
    05:00 +16°C° 0 mm 0 mps 654 mmHg 53%
    06:00 +16°C° 0 mm 0 mps 654 mmHg 53%
    07:00 +16°C° 0 mm 0 mps 654 mmHg 53%
    08:00 +22°C° 0 mm 1 mps 655 mmHg 43%
    09:00 +26°C° 0 mm 3 mps 656 mmHg 33%
    10:00 +30°C° 0 mm 4 mps 657 mmHg 23%
    11:00 +32°C° 0 mm 4 mps 657 mmHg 22%
    12:00 +33°C° 0 mm 3 mps 656 mmHg 20%
    13:00 +34°C° 0 mm 3 mps 656 mmHg 18%
    14:00 +34°C° 0 mm 3 mps 655 mmHg 18%
    15:00 +34°C° 0 mm 2 mps 655 mmHg 19%
    16:00 +32°C° 0 mm 2 mps 654 mmHg 19%
    17:00 +29°C° 0 mm 2 mps 654 mmHg 24%
    18:00 +27°C° 0 mm 2 mps 654 mmHg 29%
    19:00 +24°C° 0 mm 2 mps 654 mmHg 34%
    20:00 +23°C° 0 mm 1 mps 654 mmHg 37%
    21:00 +22°C° 0 mm 1 mps 654 mmHg 39%
    22:00 +21°C° 0 mm 1 mps 654 mmHg 41%
    23:00 +21°C° 0 mm 1 mps 654 mmHg 41%

    26 May, Sunday

    Time Temperature Precipitation Wind Pressure Humidity
    00:00 +21°C° 0 mm 1 mps 654 mmHg 41%
    01:00 +20°C° 0 mm 1 mps 654 mmHg 41%
    02:00 +19°C° 0 mm 1 mps 653 mmHg 44%
    03:00 +16°C° 0 mm 0 mps 653 mmHg 48%
    04:00 +15°C° 0 mm 0 mps 653 mmHg 51%
    05:00 +15°C° 0 mm 0 mps 653 mmHg 51%
    06:00 +16°C° 0 mm 1 mps 654 mmHg 51%
    07:00 +16°C° 0 mm 1 mps 654 mmHg 52%
    08:00 +19°C° 0 mm 2 mps 655 mmHg 44%
    09:00 +24°C° 0 mm 3 mps 655 mmHg 35%
    10:00 +27°C° 0 mm 4 mps 656 mmHg 27%
    11:00 +29°C° 0 mm 3 mps 656 mmHg 25%
    12:00 +30°C° 0 mm 3 mps 655 mmHg 22%
    13:00 +32°C° 0 mm 2 mps 655 mmHg 20%
    14:00 +32°C° 0 mm 2 mps 655 mmHg 20%
    15:00 +32°C° 0 mm 1 mps 654 mmHg 20%
    16:00 +32°C° 0 mm 1 mps 654 mmHg 19%
    17:00 +29°C° 0 mm 1 mps 654 mmHg 24%
    18:00 +26°C° 0 mm 1 mps 654 mmHg 28%
    19:00 +23°C° 0 mm 1 mps 654 mmHg 33%
    20:00 +23°C° 0 mm 1 mps 654 mmHg 34%
    21:00 +22°C° 0 mm 1 mps 654 mmHg 35%
    22:00 +22°C° 0 mm 1 mps 654 mmHg 36%
    23:00 +21°C° 0 mm 1 mps 654 mmHg 37%
    Show more